This is the latest recevied weather packets stored in our database for station/object K6CED. If no packets are shown the sender has not sent any weather packets the latest 10 day(s).
| Time | Temp. | Humidity | Pressure | Rain* | Wind** | Luminosity | Snow |
|---|---|---|---|---|---|---|---|
| 1788114876 | 31.11° C | 48% | 1015.3 hPa | 0 mm | - | 796 W/m² | - |
| 1788114571 | 30.56° C | 49% | 1015.4 hPa | 0 mm | - | 791 W/m² | - |
| 1788114267 | 31.67° C | 47% | 1015.4 hPa | 0 mm | - | 784 W/m² | - |
| 1788113963 | 31.11° C | 48% | 1015.2 hPa | 0 mm | - | 775 W/m² | - |
| 1788113653 | 30.56° C | 51% | 1015.6 hPa | 0 mm | - | 772 W/m² | - |
| 1788113352 | 30.56° C | 50% | 1015.6 hPa | 0 mm | - | 765 W/m² | - |
| 1788113047 | 30.56° C | 50% | 1015.4 hPa | 0 mm | - | 756 W/m² | - |
| 1788112745 | 31.11° C | 48% | 1015.5 hPa | 0 mm | - | 749 W/m² | - |
| 1788112440 | 30.56° C | 49% | 1015.7 hPa | 0 mm | - | 741 W/m² | - |
| 1788112135 | 30.56° C | 49% | 1015.4 hPa | 0 mm | - | 731 W/m² | - |
| 1788111831 | 30.56° C | 48% | 1015.6 hPa | 0 mm | - | 722 W/m² | - |
| 1788111526 | 30° C | 49% | 1015.7 hPa | 0 mm | - | 709 W/m² | - |
| 1788111221 | 30.56° C | 49% | 1015.5 hPa | 0 mm | - | 698 W/m² | - |
| 1788110917 | 30° C | 49% | 1015.4 hPa | 0 mm | - | 688 W/m² | - |
| 1788110613 | 30° C | 50% | 1015.5 hPa | 0 mm | - | 673 W/m² | - |
| 1788110308 | 29.44° C | 50% | 1015.2 hPa | 0 mm | - | 658 W/m² | - |
| 1788110004 | 29.44° C | 50% | 1015.3 hPa | 0 mm | - | 643 W/m² | - |
| 1788109699 | 28.89° C | 52% | 1015.4 hPa | 0 mm | - | 635 W/m² | - |
| 1788109398 | 28.89° C | 52% | 1015.5 hPa | 0 mm | - | 616 W/m² | - |
| 1788109096 | 28.89° C | 52% | 1015.5 hPa | 0 mm | - | 599 W/m² | - |
| 1788108792 | 28.89° C | 54% | 1015.6 hPa | 0 mm | - | 582 W/m² | - |
| 1788108483 | 27.78° C | 56% | 1015.5 hPa | 0 mm | - | 563 W/m² | - |
| 1788108178 | 27.78° C | 57% | 1015.6 hPa | 0 mm | - | 549 W/m² | - |
| 1788107869 | 27.78° C | 58% | 1015.7 hPa | 0 mm | - | 534 W/m² | - |
| 1788107564 | 27.22° C | 61% | 1015.6 hPa | 0 mm | - | 522 W/m² | - |
* Rain latest hour (hover to see other rain measurements)
** Current wind speed in m/s (hover to see current wind gust speed)